TAM8152 SCEL-SBGR

Flight info

Callsign TAM8152
Flight time N/A
Altitude 37000
Route NEBEG7C/17R NEBEG UL531 ESITO UT652 SIKOB UM400 SAVLU UZ121 BUXUK
Aircraft B77W/H-SDE1E2E3FGHIJ2J3J4J5M1RWXY/LB1D1

Departure

Time N/A
Airport Comodoro Arturo Merino Benítez International Airport (SCEL)

Arrival

Time 2026-05-03 23:00
Airport São Paulo/Guarulhos–Governor André Franco Montoro International Airport (SBGR)
Time Latitude Longitude Altitude Speed Heading
2026-05-03 20:15 -33.85928 -68.76089 36864 ft 535 kts 62°
2026-05-03 20:15 -33.82668 -68.68074 36865 ft 532 kts 62°
2026-05-03 20:16 -33.79446 -68.60069 36871 ft 531 kts 62°
2026-05-03 20:16 -33.76275 -68.52034 36888 ft 533 kts 63°
2026-05-03 20:17 -33.73106 -68.43958 36887 ft 535 kts 63°
2026-05-03 20:17 -33.69923 -68.35871 36884 ft 537 kts 62°
2026-05-03 20:18 -33.66717 -68.27758 36881 ft 538 kts 62°
2026-05-03 20:18 -33.63502 -68.19644 36885 ft 539 kts 62°
2026-05-03 20:19 -33.60276 -68.11523 36882 ft 539 kts 62°
2026-05-03 20:19 -33.57073 -68.03477 36882 ft 538 kts 62°
2026-05-03 20:20 -33.53843 -67.95383 36879 ft 537 kts 62°
2026-05-03 20:20 -33.50615 -67.87314 36878 ft 537 kts 62°
2026-05-03 20:21 -33.47385 -67.79261 36883 ft 536 kts 62°
2026-05-03 20:21 -33.44154 -67.71222 36881 ft 536 kts 62°
2026-05-03 20:22 -33.40918 -67.63188 36854 ft 535 kts 62°
2026-05-03 20:22 -33.37675 -67.55157 36874 ft 535 kts 62°
2026-05-03 20:23 -33.34448 -67.47184 36883 ft 536 kts 62°
2026-05-03 20:23 -33.31188 -67.39147 36885 ft 537 kts 62°
2026-05-03 20:24 -33.27918 -67.31103 36881 ft 538 kts 62°
2026-05-03 20:24 -33.25193 -67.24416 36884 ft 538 kts 62°
2026-05-03 20:25 -33.21369 -67.15084 36895 ft 539 kts 62°
2026-05-03 20:25 -33.18061 -67.07038 36889 ft 540 kts 62°
2026-05-03 20:26 -33.14753 -66.98999 36885 ft 540 kts 62°
2026-05-03 20:26 -33.12000 -66.92324 36888 ft 539 kts 61°
2026-05-03 20:27 -33.08684 -66.84295 36901 ft 539 kts 61°
2026-05-03 20:27 -33.05360 -66.76283 36896 ft 539 kts 61°
2026-05-03 20:28 -33.02024 -66.68278 36891 ft 539 kts 61°
2026-05-03 20:28 -32.98690 -66.60289 36896 ft 538 kts 61°
2026-05-03 20:29 -32.95349 -66.52298 36896 ft 538 kts 61°
2026-05-03 20:29 -32.92003 -66.44313 36900 ft 539 kts 61°
2026-05-03 20:30 -32.88645 -66.36316 36904 ft 541 kts 61°
2026-05-03 20:30 -32.85272 -66.28304 36902 ft 542 kts 61°
2026-05-03 20:31 -32.81903 -66.20320 36924 ft 544 kts 61°
2026-05-03 20:31 -32.78510 -66.12283 36911 ft 545 kts 61°
2026-05-03 20:32 -32.75074 -66.04251 36931 ft 544 kts 60°
2026-05-03 20:32 -32.71582 -65.96244 36932 ft 544 kts 60°
2026-05-03 20:33 -32.68115 -65.88314 36933 ft 544 kts 60°
2026-05-03 20:33 -32.64628 -65.80334 36941 ft 544 kts 60°
2026-05-03 20:34 -32.61150 -65.72365 36945 ft 543 kts 60°
2026-05-03 20:34 -32.57722 -65.64358 36939 ft 544 kts 61°
2026-05-03 20:35 -32.54331 -65.56390 36952 ft 545 kts 61°
2026-05-03 20:35 -32.50905 -65.48373 36943 ft 546 kts 61°
2026-05-03 20:36 -32.47453 -65.40336 36909 ft 547 kts 61°
2026-05-03 20:36 -32.43993 -65.32307 36936 ft 548 kts 61°
2026-05-03 20:37 -32.40517 -65.24255 36946 ft 550 kts 61°
2026-05-03 20:37 -32.37026 -65.16188 36950 ft 551 kts 61°
2026-05-03 20:38 -32.33546 -65.08161 36956 ft 553 kts 61°
2026-05-03 20:38 -32.30027 -65.00063 36958 ft 554 kts 61°
2026-05-03 20:39 -32.26495 -64.91953 36944 ft 555 kts 60°
2026-05-03 20:39 -32.22966 -64.83871 36959 ft 552 kts 61°
2026-05-03 20:40 -32.19444 -64.75814 36961 ft 551 kts 61°
2026-05-03 20:40 -32.15927 -64.67794 36959 ft 550 kts 60°
2026-05-03 20:41 -32.12405 -64.59778 36977 ft 550 kts 60°
2026-05-03 20:41 -32.08871 -64.51759 36968 ft 550 kts 60°
2026-05-03 20:42 -32.05360 -64.43806 36969 ft 551 kts 60°
2026-05-03 20:42 -32.01818 -64.35796 36954 ft 551 kts 60°
2026-05-03 20:43 -31.98271 -64.27796 36968 ft 550 kts 61°
2026-05-03 20:43 -31.94718 -64.19798 36977 ft 550 kts 61°
2026-05-03 20:44 -31.91166 -64.11819 36980 ft 550 kts 61°
2026-05-03 20:44 -31.87607 -64.03843 36970 ft 550 kts 61°
2026-05-03 20:45 -31.84051 -63.95892 36984 ft 549 kts 61°
2026-05-03 20:45 -31.80490 -63.87946 36987 ft 549 kts 61°
2026-05-03 20:46 -31.76923 -63.80004 36997 ft 549 kts 60°
2026-05-03 20:46 -31.73377 -63.72126 36994 ft 548 kts 61°
2026-05-03 20:47 -31.69803 -63.64201 37000 ft 548 kts 61°
2026-05-03 20:47 -31.66230 -63.56297 37002 ft 548 kts 61°
2026-05-03 20:48 -31.62656 -63.48406 37011 ft 547 kts 60°
2026-05-03 20:48 -31.59075 -63.40517 37013 ft 547 kts 61°
2026-05-03 20:49 -31.55513 -63.32689 37019 ft 547 kts 61°
2026-05-03 20:49 -31.51926 -63.24819 37024 ft 547 kts 61°
2026-05-03 20:50 -31.48337 -63.16964 37024 ft 545 kts 60°
2026-05-03 20:50 -31.44752 -63.09133 37027 ft 545 kts 61°
2026-05-03 20:51 -31.41157 -63.01297 37030 ft 545 kts 60°
2026-05-03 20:51 -31.37564 -62.93480 37029 ft 545 kts 60°
2026-05-03 20:52 -31.33966 -62.85669 37032 ft 545 kts 60°
2026-05-03 20:52 -31.30364 -62.77868 37037 ft 545 kts 61°
2026-05-03 20:53 -31.26754 -62.70063 37029 ft 545 kts 60°
2026-05-03 20:53 -31.23144 -62.62275 37037 ft 545 kts 60°
2026-05-03 20:54 -31.19529 -62.54491 37035 ft 545 kts 60°
2026-05-03 20:54 -31.14112 -62.42860 37038 ft 545 kts 60°
2026-05-03 20:55 -31.10483 -62.35087 37041 ft 545 kts 60°
2026-05-03 20:55 -31.06844 -62.27308 37040 ft 545 kts 60°
2026-05-03 20:56 -31.03202 -62.19541 37046 ft 545 kts 60°
2026-05-03 20:56 -30.99560 -62.11787 37037 ft 545 kts 60°
2026-05-03 20:57 -30.95915 -62.04043 37044 ft 545 kts 60°
2026-05-03 20:57 -30.92266 -61.96307 37044 ft 545 kts 60°
2026-05-03 20:58 -30.88609 -61.88570 37050 ft 545 kts 60°
2026-05-03 20:58 -30.84972 -61.80889 37045 ft 545 kts 60°
2026-05-03 20:59 -30.81306 -61.73164 37047 ft 545 kts 60°
2026-05-03 20:59 -30.77633 -61.65438 37048 ft 545 kts 60°
2026-05-03 21:00 -30.75173 -61.60274 37049 ft 545 kts 60°
2026-05-03 21:00 -30.70277 -61.50015 37058 ft 545 kts 60°
2026-05-03 21:01 -30.66587 -61.42302 37058 ft 545 kts 60°
2026-05-03 21:01 -30.62892 -61.34592 37057 ft 545 kts 60°
2026-05-03 21:02 -30.59193 -61.26889 37061 ft 546 kts 60°
2026-05-03 21:02 -30.55516 -61.19248 37063 ft 546 kts 60°
2026-05-03 21:03 -30.51807 -61.11556 37063 ft 545 kts 60°
2026-05-03 21:03 -30.48097 -61.03877 37075 ft 545 kts 60°
2026-05-03 21:04 -30.44384 -60.96206 37065 ft 546 kts 60°
2026-05-03 21:04 -30.40665 -60.88538 37063 ft 546 kts 60°
2026-05-03 21:05 -30.36944 -60.80882 37069 ft 546 kts 60°
2026-05-03 21:05 -30.33237 -60.73269 37074 ft 546 kts 60°
2026-05-03 21:06 -30.29501 -60.65610 37068 ft 546 kts 60°
2026-05-03 21:06 -30.25753 -60.57940 37072 ft 546 kts 60°
2026-05-03 21:07 -30.22008 -60.50292 37070 ft 546 kts 60°
2026-05-03 21:07 -30.18298 -60.42691 37073 ft 546 kts 62°
2026-05-03 21:08 -30.15272 -60.34655 37080 ft 545 kts 71°
2026-05-03 21:08 -30.12714 -60.26417 37079 ft 545 kts 72°
2026-05-03 21:09 -30.10139 -60.18181 37073 ft 545 kts 71°
2026-05-03 21:09 -30.07520 -60.09972 37079 ft 545 kts 71°
2026-05-03 21:10 -30.04874 -60.01757 37081 ft 545 kts 71°
2026-05-03 21:10 -30.02222 -59.93544 37084 ft 546 kts 71°
2026-05-03 21:11 -29.99586 -59.85388 37090 ft 546 kts 71°
2026-05-03 21:11 -29.96930 -59.77184 37084 ft 546 kts 71°
2026-05-03 21:12 -29.94267 -59.68979 37085 ft 546 kts 71°
2026-05-03 21:12 -29.92033 -59.62112 37084 ft 546 kts 71°
2026-05-03 21:13 -29.88927 -59.52588 37085 ft 546 kts 71°
2026-05-03 21:13 -29.86250 -59.44402 37072 ft 546 kts 71°
2026-05-03 21:14 -29.84022 -59.37604 37072 ft 546 kts 71°
2026-05-03 21:14 -29.81333 -59.29416 37092 ft 546 kts 70°
2026-05-03 21:15 -29.78633 -59.21216 37080 ft 547 kts 70°
2026-05-03 21:15 -29.75948 -59.13080 37098 ft 547 kts 70°
2026-05-03 21:16 -29.73240 -59.04893 37092 ft 548 kts 70°
2026-05-03 21:16 -29.70523 -58.96696 37090 ft 548 kts 70°
2026-05-03 21:17 -29.67802 -58.88507 37089 ft 548 kts 70°
2026-05-03 21:17 -29.65146 -58.80285 37096 ft 547 kts 71°
2026-05-03 21:18 -29.62567 -58.72102 37091 ft 547 kts 71°
2026-05-03 21:18 -29.59960 -58.63875 37094 ft 547 kts 71°
2026-05-03 21:19 -29.57338 -58.55671 37095 ft 547 kts 71°
2026-05-03 21:19 -29.54708 -58.47476 37097 ft 547 kts 71°
2026-05-03 21:20 -29.52076 -58.39288 37096 ft 546 kts 71°
2026-05-03 21:20 -29.49441 -58.31108 37097 ft 546 kts 71°
2026-05-03 21:21 -29.46800 -58.22929 37098 ft 546 kts 71°
2026-05-03 21:21 -29.44175 -58.14817 37099 ft 546 kts 70°
2026-05-03 21:22 -29.41519 -58.06640 37099 ft 546 kts 70°
2026-05-03 21:22 -29.38607 -57.98590 37100 ft 546 kts 67°
2026-05-03 21:23 -29.35562 -57.90615 37097 ft 546 kts 66°
2026-05-03 21:23 -29.32577 -57.82669 37093 ft 546 kts 67°
2026-05-03 21:24 -29.29604 -57.74662 37098 ft 546 kts 67°
2026-05-03 21:24 -29.26628 -57.66663 37097 ft 546 kts 67°
2026-05-03 21:25 -29.23661 -57.58659 37103 ft 546 kts 68°
2026-05-03 21:25 -29.20851 -57.50566 37099 ft 546 kts 69°
2026-05-03 21:26 -29.18098 -57.42473 37098 ft 546 kts 69°
2026-05-03 21:26 -29.15313 -57.34386 37094 ft 546 kts 68°
2026-05-03 21:27 -29.12522 -57.26363 37102 ft 546 kts 68°
2026-05-03 21:27 -29.09707 -57.18303 37101 ft 546 kts 68°
2026-05-03 21:28 -29.06888 -57.10244 37104 ft 546 kts 68°
2026-05-03 21:28 -29.04062 -57.02174 37098 ft 547 kts 68°
2026-05-03 21:29 -29.01228 -56.94103 37101 ft 547 kts 68°
2026-05-03 21:29 -28.98394 -56.86048 37101 ft 547 kts 68°
2026-05-03 21:30 -28.95553 -56.77990 37098 ft 547 kts 68°
2026-05-03 21:30 -28.92702 -56.69924 37099 ft 547 kts 68°
2026-05-03 21:31 -28.89869 -56.61924 37100 ft 547 kts 67°
2026-05-03 21:31 -28.87013 -56.53875 37098 ft 547 kts 67°
2026-05-03 21:32 -28.84139 -56.45834 37095 ft 547 kts 67°
2026-05-03 21:32 -28.81260 -56.37813 37095 ft 547 kts 67°
2026-05-03 21:33 -28.78377 -56.29787 37095 ft 547 kts 66°
2026-05-03 21:33 -28.75493 -56.21770 37094 ft 547 kts 66°
2026-05-03 21:34 -28.72604 -56.13757 37094 ft 546 kts 66°
2026-05-03 21:34 -28.69791 -56.05709 37091 ft 546 kts 68°
2026-05-03 21:35 -28.67024 -55.97643 37096 ft 547 kts 68°
2026-05-03 21:35 -28.64231 -55.89558 37093 ft 548 kts 67°
2026-05-03 21:36 -28.61440 -55.81533 37096 ft 549 kts 67°
2026-05-03 21:36 -28.58624 -55.73459 37091 ft 549 kts 67°
2026-05-03 21:37 -28.55801 -55.65376 37098 ft 549 kts 67°
2026-05-03 21:37 -28.52960 -55.57297 37093 ft 549 kts 67°
2026-05-03 21:38 -28.50110 -55.49244 37093 ft 549 kts 67°
2026-05-03 21:38 -28.47255 -55.41187 37093 ft 549 kts 66°
2026-05-03 21:39 -28.44398 -55.33135 37090 ft 549 kts 66°
2026-05-03 21:39 -28.41539 -55.25091 37088 ft 549 kts 66°
2026-05-03 21:40 -28.38694 -55.17104 37093 ft 548 kts 66°
2026-05-03 21:40 -28.35827 -55.09074 37088 ft 548 kts 66°
2026-05-03 21:41 -28.32957 -55.01055 37093 ft 548 kts 66°
2026-05-03 21:41 -28.30086 -54.93047 37092 ft 548 kts 66°
2026-05-03 21:42 -28.27210 -54.85043 37093 ft 547 kts 66°
2026-05-03 21:42 -28.24331 -54.77048 37090 ft 547 kts 66°
2026-05-03 21:43 -28.21468 -54.69110 37100 ft 547 kts 66°
2026-05-03 21:43 -28.18584 -54.61123 37100 ft 547 kts 66°
2026-05-03 21:44 -28.15703 -54.53153 37100 ft 547 kts 66°
2026-05-03 21:44 -28.12828 -54.45214 37092 ft 547 kts 66°
2026-05-03 21:45 -28.09918 -54.37198 37106 ft 546 kts 66°
2026-05-03 21:45 -28.07040 -54.29286 37100 ft 547 kts 66°
2026-05-03 21:46 -28.04138 -54.21326 37102 ft 546 kts 66°
2026-05-03 21:46 -28.01235 -54.13381 37102 ft 546 kts 65°
2026-05-03 21:47 -27.98324 -54.05431 37104 ft 546 kts 65°
2026-05-03 21:47 -27.95433 -53.97550 37092 ft 546 kts 65°
2026-05-03 21:48 -27.92516 -53.89615 37103 ft 546 kts 65°
2026-05-03 21:48 -27.89594 -53.81687 37108 ft 546 kts 65°
2026-05-03 21:49 -27.86668 -53.73761 37109 ft 546 kts 65°
2026-05-03 21:49 -27.83734 -53.65831 37111 ft 546 kts 65°
2026-05-03 21:50 -27.80798 -53.57909 37113 ft 547 kts 65°
2026-05-03 21:50 -27.77874 -53.50040 37111 ft 547 kts 65°
2026-05-03 21:51 -27.74925 -53.42117 37115 ft 547 kts 65°
2026-05-03 21:51 -27.71971 -53.34199 37107 ft 547 kts 65°
2026-05-03 21:52 -27.69014 -53.26288 37100 ft 547 kts 65°
2026-05-03 21:52 -27.66057 -53.18392 37126 ft 546 kts 65°
2026-05-03 21:53 -27.63092 -53.10492 37109 ft 547 kts 65°
2026-05-03 21:53 -27.60125 -53.02601 37102 ft 547 kts 65°
2026-05-03 21:54 -27.57171 -52.94755 37123 ft 547 kts 65°
2026-05-03 21:54 -27.54197 -52.86863 37104 ft 547 kts 65°
2026-05-03 21:55 -27.51217 -52.78974 37126 ft 547 kts 65°
2026-05-03 21:55 -27.48225 -52.71086 37106 ft 547 kts 65°
2026-05-03 21:56 -27.45229 -52.63199 37109 ft 548 kts 65°
2026-05-03 21:56 -27.42228 -52.55313 37110 ft 548 kts 65°
2026-05-03 21:57 -27.39221 -52.47439 37134 ft 547 kts 64°
2026-05-03 21:57 -27.36213 -52.39573 37122 ft 546 kts 64°
2026-05-03 21:58 -27.33206 -52.31730 37120 ft 546 kts 64°
2026-05-03 21:58 -27.30191 -52.23873 37121 ft 547 kts 64°
2026-05-03 21:59 -27.27182 -52.16047 37127 ft 548 kts 64°
2026-05-03 21:59 -27.24150 -52.08181 37128 ft 548 kts 64°
2026-05-03 22:00 -27.21110 -52.00302 37124 ft 549 kts 64°
2026-05-03 22:00 -27.18102 -51.92470 37122 ft 550 kts 64°
2026-05-03 22:01 -27.15054 -51.84596 37137 ft 549 kts 64°
2026-05-03 22:01 -27.11983 -51.76731 37138 ft 550 kts 64°
2026-05-03 22:02 -27.08905 -51.68858 37141 ft 551 kts 64°
2026-05-03 22:02 -27.05826 -51.60986 37138 ft 551 kts 64°
2026-05-03 22:03 -27.02748 -51.53128 37140 ft 550 kts 64°
2026-05-03 22:03 -27.00182 -51.46597 37150 ft 550 kts 64°
2026-05-03 22:04 -26.97094 -51.38744 37154 ft 550 kts 64°
2026-05-03 22:04 -26.94001 -51.30896 37155 ft 550 kts 64°
2026-05-03 22:05 -26.90405 -51.21784 37149 ft 550 kts 64°
2026-05-03 22:05 -26.87804 -51.15214 37155 ft 550 kts 63°
2026-05-03 22:06 -26.84721 -51.07437 37175 ft 550 kts 64°
2026-05-03 22:06 -26.81611 -50.99603 37160 ft 550 kts 63°
2026-05-03 22:07 -26.78495 -50.91773 37168 ft 550 kts 63°
2026-05-03 22:07 -26.75381 -50.83958 37167 ft 551 kts 63°
2026-05-03 22:08 -26.72245 -50.76136 37182 ft 551 kts 63°
2026-05-03 22:08 -26.69092 -50.68313 37186 ft 552 kts 63°
2026-05-03 22:09 -26.65936 -50.60486 37183 ft 552 kts 63°
2026-05-03 22:10 -26.61222 -50.48730 37195 ft 553 kts 64°
2026-05-03 22:10 -26.58136 -50.40852 37171 ft 553 kts 64°
2026-05-03 22:11 -26.55045 -50.33049 37189 ft 552 kts 63°
2026-05-03 22:11 -26.51864 -50.25230 37198 ft 552 kts 63°
2026-05-03 22:12 -26.48666 -50.17412 37203 ft 553 kts 62°
2026-05-03 22:12 -26.45477 -50.09601 37210 ft 553 kts 63°
2026-05-03 22:13 -26.42304 -50.01823 37201 ft 554 kts 63°
2026-05-03 22:13 -26.39107 -49.94004 37217 ft 554 kts 62°
2026-05-03 22:14 -26.35897 -49.86169 37214 ft 555 kts 62°
2026-05-03 22:14 -26.32685 -49.78326 37236 ft 556 kts 63°
2026-05-03 22:15 -26.29504 -49.70446 37220 ft 557 kts 63°
2026-05-03 22:15 -26.26345 -49.62613 37233 ft 558 kts 63°
2026-05-03 22:16 -26.23141 -49.54708 37235 ft 559 kts 62°
2026-05-03 22:16 -26.19909 -49.46840 37233 ft 559 kts 62°
2026-05-03 22:17 -26.16654 -49.38965 37241 ft 559 kts 62°
2026-05-03 22:17 -26.13352 -49.31146 37237 ft 556 kts 56°
2026-05-03 22:17 -26.11224 -49.27656 37242 ft 546 kts 44°
2026-05-03 22:18 -26.08598 -49.24586 37250 ft 537 kts 34°
2026-05-03 22:18 -26.02646 -49.19945 37266 ft 519 kts 21°
2026-05-03 22:19 -25.96346 -49.15987 37259 ft 522 kts 21°
2026-05-03 22:19 -25.90033 -49.11940 37254 ft 524 kts 21°
2026-05-03 22:20 -25.83729 -49.07822 37233 ft 526 kts 22°
2026-05-03 22:20 -25.77460 -49.03727 37237 ft 526 kts 21°
2026-05-03 22:21 -25.71150 -48.99596 37257 ft 526 kts 22°
2026-05-03 22:21 -25.64872 -48.95405 37262 ft 527 kts 22°
2026-05-03 22:22 -25.58597 -48.91210 37256 ft 527 kts 22°
2026-05-03 22:22 -25.52329 -48.87029 37243 ft 524 kts 22°
2026-05-03 22:23 -25.46104 -48.82927 37243 ft 522 kts 21°
2026-05-03 22:23 -25.39762 -48.79059 37253 ft 520 kts 19°
2026-05-03 22:24 -25.33387 -48.75254 37241 ft 521 kts 19°
2026-05-03 22:24 -25.27017 -48.71387 37234 ft 522 kts 20°
2026-05-03 22:25 -25.20646 -48.67532 37245 ft 522 kts 19°
2026-05-03 22:25 -25.14268 -48.63699 37237 ft 520 kts 19°
2026-05-03 22:26 -25.07910 -48.59886 37286 ft 519 kts 19°
2026-05-03 22:26 -25.01542 -48.56069 37251 ft 522 kts 19°
2026-05-03 22:27 -24.95194 -48.52250 37242 ft 524 kts 19°
2026-05-03 22:27 -24.88783 -48.48372 37208 ft 524 kts 19°
2026-05-03 22:28 -24.82394 -48.44500 37240 ft 524 kts 19°
2026-05-03 22:28 -24.75999 -48.40644 37228 ft 523 kts 19°
2026-05-03 22:29 -24.69624 -48.36806 37232 ft 522 kts 19°
2026-05-03 22:29 -24.63303 -48.33003 37224 ft 520 kts 19°
2026-05-03 22:30 -24.56927 -48.29168 37222 ft 518 kts 19°
2026-05-03 22:30 -24.50611 -48.25376 37225 ft 518 kts 19°
2026-05-03 22:31 -24.44317 -48.21605 37228 ft 517 kts 20°
2026-05-03 22:31 -24.38007 -48.17820 37239 ft 516 kts 19°
2026-05-03 22:32 -24.31689 -48.14053 37233 ft 516 kts 19°
2026-05-03 22:32 -24.25408 -48.10358 37232 ft 515 kts 19°
2026-05-03 22:33 -24.19080 -48.06636 37101 ft 515 kts 19°
2026-05-03 22:33 -24.15949 -48.04786 36777 ft 508 kts 19°
2026-05-03 22:33 -24.12847 -48.02954 36271 ft 505 kts 19°
2026-05-03 22:33 -24.09740 -48.01132 35774 ft 507 kts 19°
2026-05-03 22:34 -24.06629 -47.99311 35461 ft 504 kts 19°
2026-05-03 22:34 -24.03567 -47.97512 35155 ft 496 kts 19°
2026-05-03 22:34 -24.00541 -47.95731 34701 ft 492 kts 19°
2026-05-03 22:34 -23.97532 -47.93965 34220 ft 489 kts 19°
2026-05-03 22:35 -23.94538 -47.92211 33669 ft 486 kts 19°
2026-05-03 22:35 -23.91569 -47.90472 33195 ft 482 kts 19°
2026-05-03 22:35 -23.88624 -47.88747 32749 ft 478 kts 19°
2026-05-03 22:35 -23.85744 -47.87061 32308 ft 473 kts 19°
2026-05-03 22:36 -23.82821 -47.85352 31870 ft 469 kts 19°
2026-05-03 22:36 -23.79957 -47.83676 31419 ft 465 kts 19°
2026-05-03 22:36 -23.77117 -47.82007 30971 ft 463 kts 21°
2026-05-03 22:36 -23.74462 -47.79946 30505 ft 475 kts 34°
2026-05-03 22:37 -23.72115 -47.77384 30067 ft 476 kts 39°
2026-05-03 22:37 -23.69870 -47.74808 29542 ft 472 kts 39°
2026-05-03 22:37 -23.67569 -47.72273 29037 ft 468 kts 37°
2026-05-03 22:37 -23.65245 -47.69813 28558 ft 464 kts 37°
2026-05-03 22:38 -23.62924 -47.67390 28057 ft 461 kts 37°
2026-05-03 22:38 -23.60619 -47.64979 27577 ft 458 kts 37°
2026-05-03 22:38 -23.58329 -47.62580 27124 ft 455 kts 38°
2026-05-03 22:38 -23.56052 -47.60192 26661 ft 452 kts 38°
2026-05-03 22:39 -23.53788 -47.57816 26261 ft 451 kts 38°
2026-05-03 22:39 -23.51537 -47.55453 25905 ft 448 kts 38°
2026-05-03 22:39 -23.49290 -47.53096 25565 ft 445 kts 39°
2026-05-03 22:39 -23.47064 -47.50761 25218 ft 443 kts 39°
2026-05-03 22:40 -23.44878 -47.48471 24883 ft 441 kts 39°
2026-05-03 22:40 -23.42673 -47.46162 24530 ft 439 kts 39°
2026-05-03 22:40 -23.40476 -47.43861 24198 ft 437 kts 39°
2026-05-03 22:40 -23.38289 -47.41574 23861 ft 435 kts 40°
2026-05-03 22:41 -23.36108 -47.39295 23507 ft 433 kts 40°
2026-05-03 22:41 -23.33945 -47.37032 23174 ft 428 kts 39°
2026-05-03 22:41 -23.31810 -47.34800 22926 ft 423 kts 39°
2026-05-03 22:41 -23.29696 -47.32591 22605 ft 420 kts 40°
2026-05-03 22:42 -23.27591 -47.30394 22251 ft 418 kts 40°
2026-05-03 22:42 -23.25496 -47.28208 21914 ft 416 kts 40°
2026-05-03 22:42 -23.23414 -47.26035 21597 ft 413 kts 40°
2026-05-03 22:42 -23.21347 -47.23880 21310 ft 411 kts 40°
2026-05-03 22:43 -23.19286 -47.21732 20988 ft 408 kts 40°
2026-05-03 22:43 -23.17242 -47.19602 20682 ft 406 kts 40°
2026-05-03 22:43 -23.15204 -47.17479 20378 ft 404 kts 40°
2026-05-03 22:43 -23.13210 -47.15331 20044 ft 404 kts 44°
2026-05-03 22:44 -23.11322 -47.13086 19769 ft 401 kts 45°
2026-05-03 22:44 -23.09490 -47.10873 19519 ft 397 kts 45°
2026-05-03 22:44 -23.07612 -47.08634 19247 ft 394 kts 45°
2026-05-03 22:44 -23.05751 -47.06437 18764 ft 399 kts 45°
2026-05-03 22:45 -23.03854 -47.04208 18162 ft 404 kts 45°
2026-05-03 22:45 -23.01957 -47.01978 17552 ft 409 kts 45°
2026-05-03 22:45 -23.00013 -46.99692 16964 ft 413 kts 45°
2026-05-03 22:45 -22.98062 -46.97399 16379 ft 414 kts 45°
2026-05-03 22:46 -22.96111 -46.95104 15811 ft 412 kts 45°
2026-05-03 22:46 -22.94171 -46.92824 15288 ft 411 kts 45°
2026-05-03 22:46 -22.92228 -46.90543 14799 ft 405 kts 45°
2026-05-03 22:46 -22.90378 -46.88368 14409 ft 378 kts 46°
2026-05-03 22:47 -22.88895 -46.86119 14204 ft 363 kts 67°
2026-05-03 22:47 -22.88490 -46.83499 14183 ft 348 kts 96°
2026-05-03 22:47 -22.89199 -46.81034 13824 ft 340 kts 125°
2026-05-03 22:47 -22.90845 -46.79308 13523 ft 323 kts 152°
2026-05-03 22:48 -22.92734 -46.78088 13303 ft 321 kts 150°
2026-05-03 22:48 -22.94590 -46.76738 13025 ft 321 kts 147°
2026-05-03 22:48 -22.96403 -46.75328 12751 ft 319 kts 146°
2026-05-03 22:48 -22.98174 -46.73901 12472 ft 315 kts 146°
2026-05-03 22:49 -22.99919 -46.72473 12211 ft 311 kts 144°
2026-05-03 22:49 -23.01632 -46.71057 11952 ft 308 kts 145°
2026-05-03 22:49 -23.03332 -46.69647 11696 ft 306 kts 145°
2026-05-03 22:49 -23.05014 -46.68248 11435 ft 303 kts 144°
2026-05-03 22:50 -23.06687 -46.66858 11160 ft 303 kts 144°
2026-05-03 22:50 -23.08368 -46.65459 10917 ft 305 kts 144°
2026-05-03 22:50 -23.10055 -46.64055 10664 ft 307 kts 144°
2026-05-03 22:50 -23.11747 -46.62644 10400 ft 305 kts 143°
2026-05-03 22:51 -23.13424 -46.61242 10130 ft 302 kts 143°
2026-05-03 22:51 -23.15037 -46.59894 9836 ft 291 kts 144°
2026-05-03 22:51 -23.16644 -46.58551 9601 ft 292 kts 144°
2026-05-03 22:51 -23.18254 -46.57206 9350 ft 289 kts 144°
2026-05-03 22:52 -23.19985 -46.56215 9063 ft 278 kts 169°
2026-05-03 22:52 -23.21864 -46.56179 8883 ft 268 kts 192°
2026-05-03 22:52 -23.23589 -46.56860 8656 ft 262 kts 210°
2026-05-03 22:52 -23.25134 -46.57903 8437 ft 260 kts 215°
2026-05-03 22:53 -23.26646 -46.59007 8108 ft 267 kts 214°
2026-05-03 22:53 -23.28200 -46.60143 7809 ft 269 kts 214°
2026-05-03 22:53 -23.29750 -46.61264 7579 ft 265 kts 214°
2026-05-03 22:53 -23.30765 -46.61995 7434 ft 262 kts 213°
2026-05-03 22:54 -23.32276 -46.63079 7236 ft 258 kts 213°
2026-05-03 22:54 -23.33771 -46.64147 7050 ft 257 kts 212°
2026-05-03 22:54 -23.35289 -46.65227 6878 ft 264 kts 212°
2026-05-03 22:54 -23.36840 -46.66330 6685 ft 268 kts 212°
2026-05-03 22:55 -23.38400 -46.67442 6511 ft 268 kts 212°
2026-05-03 22:55 -23.39956 -46.68526 6276 ft 261 kts 207°
2026-05-03 22:55 -23.41653 -46.69005 6070 ft 247 kts 175°
2026-05-03 22:55 -23.43271 -46.68545 5796 ft 238 kts 150°
2026-05-03 22:56 -23.44546 -46.67521 5593 ft 225 kts 131°
2026-05-03 22:56 -23.45495 -46.66184 5375 ft 216 kts 124°
2026-05-03 22:56 -23.46302 -46.64869 5172 ft 208 kts 123°
2026-05-03 22:56 -23.47051 -46.63555 4948 ft 200 kts 113°
2026-05-03 22:57 -23.47220 -46.62101 4720 ft 190 kts 89°
2026-05-03 22:57 -23.47026 -46.60731 4532 ft 173 kts 84°
2026-05-03 22:57 -23.46803 -46.59518 4379 ft 156 kts 79°
2026-05-03 22:57 -23.46529 -46.58442 4241 ft 140 kts 78°
2026-05-03 22:58 -23.46252 -46.57410 4167 ft 146 kts 78°
2026-05-03 22:58 -23.45957 -46.56328 3956 ft 149 kts 78°
2026-05-03 22:58 -23.45671 -46.55277 3759 ft 145 kts 78°
2026-05-03 22:58 -23.45386 -46.54234 3578 ft 144 kts 78°
2026-05-03 22:59 -23.45100 -46.53181 3388 ft 146 kts 77°
2026-05-03 22:59 -23.44805 -46.52120 3128 ft 146 kts 78°
2026-05-03 22:59 -23.44521 -46.51079 2939 ft 143 kts 76°
2026-05-03 22:59 -23.44236 -46.50027 2764 ft 144 kts 76°
2026-05-03 23:00 -23.43950 -46.48954 2560 ft 148 kts 73°
2026-05-03 23:00 -23.43660 -46.47909 2470 ft 137 kts 73°
2026-05-03 23:00 -23.43437 -46.47061 2472 ft 91 kts 73°
2026-05-03 23:00 -23.43314 -46.46608 2473 ft 40 kts 74°
2026-05-03 23:01 -23.43200 -46.46356 2475 ft 39 kts 51°
2026-05-03 23:01 -23.43043 -46.46179 2472 ft 22 kts 44°
2026-05-03 23:01 -23.42981 -46.46143 2471 ft 0 kts 358°
2026-05-03 23:02 -23.42980 -46.46143 2471 ft 2 kts 358°
2026-05-03 23:02 -23.42909 -46.46154 2473 ft 13 kts 346°
2026-05-03 23:02 -23.42826 -46.46177 2472 ft 13 kts 346°
2026-05-03 23:02 -23.42742 -46.46203 2470 ft 13 kts 344°
2026-05-03 23:03 -23.42656 -46.46233 2472 ft 13 kts 334°
2026-05-03 23:03 -23.42628 -46.46323 2468 ft 14 kts 260°
2026-05-03 23:03 -23.42656 -46.46429 2471 ft 15 kts 253°
2026-05-03 23:03 -23.42686 -46.46535 2470 ft 15 kts 253°
2026-05-03 23:04 -23.42715 -46.46641 2472 ft 15 kts 254°
2026-05-03 23:04 -23.42743 -46.46748 2473 ft 15 kts 253°
2026-05-03 23:04 -23.42771 -46.46854 2470 ft 15 kts 254°
2026-05-03 23:04 -23.42800 -46.46960 2475 ft 15 kts 253°
2026-05-03 23:05 -23.42827 -46.47067 2473 ft 15 kts 265°
2026-05-03 23:05 -23.42762 -46.47143 2473 ft 15 kts 339°
2026-05-03 23:05 -23.42679 -46.47171 2473 ft 12 kts 342°
2026-05-03 23:05 -23.42599 -46.47197 2474 ft 12 kts 344°
2026-05-03 23:06 -23.42524 -46.47220 2473 ft 8 kts 344°
2026-05-03 23:06 -23.42492 -46.47254 2471 ft 7 kts 282°
2026-05-03 23:06 -23.42496 -46.47307 2474 ft 6 kts 258°
2026-05-03 23:06 -23.42499 -46.47320 2472 ft 1 kts 256°
2026-05-03 23:07 -23.42501 -46.47326 2471 ft 1 kts 255°
2026-05-03 23:07 -23.42504 -46.47337 2473 ft 2 kts 255°
2026-05-03 23:07 -23.42504 -46.47339 2473 ft 0 kts 255°